| time (UTC) | temp F | wind direction | speed knots | gust knots | rain 1hr in | rain 24hr in | rain mn in | humidity % | barometer mb |
| 20260906201047 | 94 | 201 | 13.0 | 20.9 | 0.00 | 0.00 | 0.00 | 39 | 1015.5 |
| 20260906200547 | 93 | 143 | 15.6 | 20.9 | 0.00 | 0.00 | 0.00 | 39 | 1015.6 |
| 20260906200056 | 93 | 119 | 12.2 | 19.1 | 0.00 | 0.00 | 0.00 | 40 | 1015.7 |
| 20260906195548 | 92 | 124 | 13.9 | 21.7 | 0.00 | 0.00 | 0.00 | 40 | 1015.8 |
| 20260906195047 | 93 | 134 | 13.9 | 21.7 | 0.00 | 0.00 | 0.00 | 40 | 1016.1 |
| 20260906194609 | 93 | 146 | 13.9 | 21.7 | 0.00 | 0.00 | 0.00 | 40 | 1016.0 |
| 20260906194047 | 92 | 134 | 12.2 | 24.3 | 0.00 | 0.00 | 0.00 | 41 | 1016.0 |
| 20260906193549 | 93 | 158 | 13.9 | 24.3 | 0.00 | 0.00 | 0.00 | 40 | 1016.2 |
| 20260906193106 | 92 | 138 | 13.9 | 19.1 | 0.00 | 0.00 | 0.00 | 41 | 1016.5 |
| 20260906192547 | 92 | 127 | 13.9 | 20.0 | 0.00 | 0.00 | 0.00 | 42 | 1016.5 |
| 20260906192050 | 91 | 137 | 14.8 | 20.0 | 0.00 | 0.00 | 0.00 | 42 | 1016.5 |
| 20260906191611 | 92 | 151 | 12.2 | 17.4 | 0.00 | 0.00 | 0.00 | 42 | 1016.6 |
| 20260906191048 | 91 | 143 | 13.0 | 17.4 | 0.00 | 0.00 | 0.00 | 42 | 1016.6 |
| 20260906190548 | 91 | 144 | 12.2 | 19.1 | 0.00 | 0.00 | 0.00 | 42 | 1016.7 |
| 20260906190106 | 91 | 155 | 11.3 | 19.1 | 0.00 | 0.00 | 0.00 | 42 | 1016.7 |
| 20260906185550 | 91 | 134 | 13.9 | 19.1 | 0.00 | 0.00 | 0.00 | 41 | 1016.8 |
| 20260906185049 | 92 | 123 | 11.3 | 17.4 | 0.00 | 0.00 | 0.00 | 41 | 1016.8 |
| 20260906184602 | 92 | 134 | 13.0 | 19.1 | 0.00 | 0.00 | 0.00 | 42 | 1016.8 |
| 20260906184047 | 91 | 126 | 13.0 | 19.1 | 0.00 | 0.00 | 0.00 | 42 | 1017.0 |
| 20260906183546 | 90 | 115 | 12.2 | 18.2 | 0.00 | 0.00 | 0.00 | 45 | 1017.1 |
| 20260906183104 | 89 | 139 | 11.3 | 18.2 | 0.00 | 0.00 | 0.00 | 44 | 1017.2 |
| 20260906182554 | 89 | 109 | 11.3 | 16.5 | 0.00 | 0.00 | 0.00 | 45 | 1017.3 |
| 20260906182049 | 88 | 115 | 9.6 | 17.4 | 0.00 | 0.00 | 0.00 | 47 | 1017.5 |
| 20260906181633 | 87 | 114 | 13.0 | 17.4 | 0.00 | 0.00 | 0.00 | 48 | 1017.6 |
| 20260906181048 | 86 | 121 | 12.2 | 16.5 | 0.00 | 0.00 | 0.00 | 48 | 1017.8 |
| 20260906180546 | 86 | 98 | 11.3 | 16.5 | 0.00 | 0.00 | 0.00 | 52 | 1018.0 |
| 20260906180108 | 86 | 101 | 12.2 | 19.1 | 0.00 | 0.00 | 0.00 | 52 | 1018.1 |
| 20260906175548 | 85 | 117 | 12.2 | 19.1 | 0.00 | 0.00 | 0.00 | 54 | 1018.0 |
| 20260906175048 | 85 | 134 | 12.2 | 16.5 | 0.00 | 0.00 | 0.00 | 55 | 1018.0 |
| 20260906174611 | 84 | 101 | 10.4 | 17.4 | 0.00 | 0.00 | 0.00 | 56 | 1018.1 |
| 20260906174048 | 84 | 101 | 11.3 | 17.4 | 0.00 | 0.00 | 0.00 | 56 | 1018.2 |
| 20260906173548 | 84 | 84 | 11.3 | 17.4 | 0.00 | 0.00 | 0.00 | 57 | 1018.4 |
| 20260906173106 | 84 | 91 | 11.3 | 17.4 | 0.00 | 0.00 | 0.00 | 58 | 1018.6 |
| 20260906172547 | 84 | 101 | 13.0 | 17.4 | 0.00 | 0.00 | 0.00 | 60 | 1018.7 |
| 20260906172045 | 83 | 142 | 10.4 | 20.0 | 0.00 | 0.00 | 0.00 | 61 | 1018.8 |
| 20260906171602 | 83 | 102 | 11.3 | 20.0 | 0.00 | 0.00 | 0.00 | 61 | 1018.9 |
| 20260906171046 | 82 | 115 | 12.2 | 16.5 | 0.00 | 0.00 | 0.00 | 65 | 1019.1 |
| 20260906170547 | 80 | 102 | 9.6 | 15.6 | 0.00 | 0.00 | 0.00 | 71 | 1019.1 |
| 20260906170103 | 79 | 77 | 5.2 | 11.3 | 0.00 | 0.00 | 0.00 | 73 | 1019.1 |
| 20260906165552 | 78 | 89 | 7.8 | 14.8 | 0.00 | 0.00 | 0.00 | 76 | 1018.9 |
| 20260906165048 | 77 | 98 | 7.0 | 14.8 | 0.00 | 0.00 | 0.00 | 77 | 1019.1 |
| 20260906164602 | 77 | 86 | 9.6 | 14.8 | 0.00 | 0.00 | 0.00 | 73 | 1019.2 |
| 20260906164048 | 78 | 68 | 5.2 | 13.0 | 0.00 | 0.00 | 0.00 | 71 | 1019.3 |
| 20260906163545 | 80 | 41 | 5.2 | 12.2 | 0.00 | 0.00 | 0.00 | 68 | 1019.3 |
| 20260906163112 | 80 | 77 | 5.2 | 11.3 | 0.00 | 0.00 | 0.00 | 66 | 1019.5 |
| 20260906162548 | 80 | 68 | 5.2 | 12.2 | 0.00 | 0.00 | 0.00 | 65 | 1019.7 |
| 20260906162047 | 79 | 85 | 5.2 | 12.2 | 0.00 | 0.00 | 0.00 | 67 | 1019.6 |
| 20260906161611 | 79 | 68 | 5.2 | 10.4 | 0.00 | 0.00 | 0.00 | 67 | 1019.7 |
| 20260906161047 | 80 | 102 | 3.5 | 11.3 | 0.00 | 0.00 | 0.00 | 67 | 1019.7 |
| 20260906160547 | 80 | 68 | 3.5 | 11.3 | 0.00 | 0.00 | 0.00 | 68 | 1019.5 |
| 20260906160105 | 80 | 109 | 4.3 | 11.3 | 0.00 | 0.00 | 0.00 | 67 | 1019.5 |
| 20260906155547 | 80 | 94 | 4.3 | 11.3 | 0.00 | 0.00 | 0.00 | 66 | 1019.4 |
| 20260906155047 | 80 | 37 | 3.5 | 11.3 | 0.00 | 0.00 | 0.00 | 65 | 1019.4 |
| 20260906154602 | 80 | 49 | 3.5 | 12.2 | 0.00 | 0.00 | 0.00 | 66 | 1019.3 |
| 20260906154047 | 80 | 13 | 5.2 | 13.0 | 0.00 | 0.00 | 0.00 | 65 | 1019.3 |
| 20260906153546 | 80 | 97 | 6.1 | 13.0 | 0.00 | 0.00 | 0.00 | 65 | 1019.1 |
| 20260906153056 | 80 | 91 | 4.3 | 12.2 | 0.00 | 0.00 | 0.00 | 64 | 1019.2 |
| 20260906152548 | 80 | 53 | 4.3 | 11.3 | 0.00 | 0.00 | 0.00 | 66 | 1019.3 |
| 20260906152048 | 79 | 66 | 5.2 | 11.3 | 0.00 | 0.00 | 0.00 | 65 | 1019.4 |
| 20260906151608 | 79 | 21 | 3.5 | 9.6 | 0.00 | 0.00 | 0.00 | 65 | 1019.2 |
| 20260906151047 | 79 | 106 | 3.5 | 9.6 | 0.00 | 0.00 | 0.00 | 65 | 1019.2 |
| 20260906150549 | 79 | 68 | 4.3 | 9.6 | 0.00 | 0.00 | 0.00 | 65 | 1019.1 |
| 20260906150059 | 79 | 94 | 2.6 | 12.2 | 0.00 | 0.00 | 0.00 | 64 | 1018.8 |
| 20260906145547 | 79 | 20 | 1.7 | 12.2 | 0.00 | 0.00 | 0.00 | 64 | 1018.8 |
| 20260906145047 | 79 | 54 | 4.3 | 12.2 | 0.00 | 0.00 | 0.00 | 64 | 1018.8 |
| 20260906144603 | 79 | 159 | 4.3 | 7.8 | 0.00 | 0.00 | 0.00 | 64 | 1018.8 |
| 20260906144051 | 79 | 50 | 1.7 | 10.4 | 0.00 | 0.00 | 0.00 | 64 | 1018.7 |
| 20260906143547 | 79 | 84 | 2.6 | 10.4 | 0.00 | 0.00 | 0.00 | 64 | 1018.7 |
| 20260906143104 | 79 | 65 | 2.6 | 10.4 | 0.00 | 0.00 | 0.00 | 62 | 1018.7 |
| 20260906142547 | 79 | 74 | 3.5 | 8.7 | 0.00 | 0.00 | 0.00 | 61 | 1018.5 |
| 20260906142046 | 79 | 39 | 2.6 | 8.7 | 0.00 | 0.00 | 0.00 | 61 | 1018.6 |
| 20260906141604 | 80 | 53 | 2.6 | 9.6 | 0.00 | 0.00 | 0.00 | 61 | 1018.6 |
| 20260906141047 | 80 | 0 | 4.3 | 9.6 | 0.00 | 0.00 | 0.00 | 60 | 1018.4 |
| 20260906140549 | 80 | 94 | 7.8 | 9.6 | 0.00 | 0.00 | 0.00 | 61 | 1018.0 |
| 20260906140108 | 79 | 91 | 6.1 | 8.7 | 0.00 | 0.00 | 0.00 | 63 | 1017.9 |
| 20260906135547 | 78 | 127 | 5.2 | 7.8 | 0.00 | 0.00 | 0.00 | 66 | 1017.8 |
| 20260906135051 | 77 | 115 | 5.2 | 7.8 | 0.00 | 0.00 | 0.00 | 68 | 1017.8 |
| 20260906134616 | 77 | 124 | 5.2 | 7.8 | 0.00 | 0.00 | 0.00 | 69 | 1017.8 |
| 20260906134050 | 76 | 124 | 4.3 | 7.0 | 0.00 | 0.00 | 0.00 | 70 | 1017.6 |
| 20260906133549 | 76 | 139 | 5.2 | 7.0 | 0.00 | 0.00 | 0.00 | 70 | 1017.7 |
| 20260906133115 | 76 | 139 | 4.3 | 7.0 | 0.00 | 0.00 | 0.00 | 71 | 1017.5 |
| 20260906132547 | 75 | 145 | 3.5 | 6.1 | 0.00 | 0.00 | 0.00 | 71 | 1017.4 |
| 20260906132048 | 75 | 134 | 4.3 | 7.0 | 0.00 | 0.00 | 0.00 | 71 | 1017.3 |
| 20260906131602 | 75 | 134 | 5.2 | 7.0 | 0.00 | 0.00 | 0.00 | 72 | 1017.4 |
| 20260906131046 | 74 | 136 | 5.2 | 7.0 | 0.00 | 0.00 | 0.00 | 73 | 1017.4 |
| 20260906130549 | 73 | 141 | 4.3 | 7.0 | 0.00 | 0.00 | 0.00 | 74 | 1017.2 |
| 20260906130110 | 73 | 143 | 5.2 | 7.0 | 0.00 | 0.00 | 0.00 | 75 | 1017.2 |
| 20260906125548 | 73 | 143 | 5.2 | 8.7 | 0.00 | 0.00 | 0.00 | 75 | 1017.0 |
| 20260906125046 | 72 | 141 | 6.1 | 8.7 | 0.00 | 0.00 | 0.00 | 75 | 1016.9 |
| 20260906124608 | 72 | 141 | 6.1 | 7.0 | 0.00 | 0.00 | 0.00 | 76 | 1017.0 |
| 20260906124052 | 72 | 134 | 5.2 | 7.0 | 0.00 | 0.00 | 0.00 | 76 | 1017.0 |
| 20260906123547 | 71 | 141 | 4.3 | 6.1 | 0.00 | 0.00 | 0.00 | 77 | 1016.8 |
| 20260906123104 | 71 | 144 | 4.3 | 5.2 | 0.00 | 0.00 | 0.00 | 78 | 1016.8 |
| 20260906122548 | 71 | 148 | 3.5 | 5.2 | 0.00 | 0.00 | 0.00 | 78 | 1016.7 |
| 20260906122048 | 70 | 149 | 3.5 | 5.2 | 0.00 | 0.00 | 0.00 | 78 | 1016.6 |
| 20260906121611 | 70 | 146 | 3.5 | 5.2 | 0.00 | 0.00 | 0.00 | 79 | 1016.6 |
| 20260906121047 | 70 | 148 | 3.5 | 4.3 | 0.00 | 0.00 | 0.00 | 79 | 1016.5 |
| 20260906120547 | 70 | 141 | 3.5 | 4.3 | 0.00 | 0.00 | 0.00 | 79 | 1016.5 |
| 20260906120056 | 69 | 134 | 3.5 | 5.2 | 0.00 | 0.00 | 0.00 | 80 | 1016.4 |
| 20260906115545 | 69 | 153 | 3.5 | 5.2 | 0.00 | 0.00 | 0.00 | 80 | 1016.3 |
| 20260906115048 | 69 | 154 | 4.3 | 5.2 | 0.00 | 0.00 | 0.00 | 80 | 1016.4 |
| 20260906114627 | 69 | 139 | 4.3 | 5.2 | 0.00 | 0.00 | 0.00 | 80 | 1016.2 |
| 20260906114048 | 69 | 143 | 4.3 | 4.3 | 0.00 | 0.00 | 0.00 | 80 | 1016.2 |
| 20260906113545 | 69 | 143 | 3.5 | 4.3 | 0.00 | 0.00 | 0.00 | 80 | 1016.1 |
| 20260906113114 | 69 | 146 | 3.5 | 4.3 | 0.00 | 0.00 | 0.00 | 80 | 1016.1 |
| 20260906112547 | 69 | 133 | 3.5 | 4.3 | 0.00 | 0.00 | 0.00 | 79 | 1016.1 |
| 20260906112047 | 69 | 152 | 3.5 | 4.3 | 0.00 | 0.00 | 0.00 | 80 | 1016.0 |
| 20260906111559 | 69 | 156 | 3.5 | 4.3 | 0.00 | 0.00 | 0.00 | 80 | 1016.1 |
| 20260906111047 | 69 | 157 | 3.5 | 4.3 | 0.00 | 0.00 | 0.00 | 79 | 1016.1 |
| 20260906110550 | 70 | 147 | 3.5 | 4.3 | 0.00 | 0.00 | 0.00 | 79 | 1016.1 |
| 20260906105549 | 70 | 143 | 2.6 | 3.5 | 0.00 | 0.00 | 0.00 | 78 | 1016.1 |
| 20260906105048 | 70 | 144 | 2.6 | 2.6 | 0.00 | 0.00 | 0.00 | 78 | 1016.0 |
| 20260906104602 | 70 | 131 | 1.7 | 2.6 | 0.00 | 0.00 | 0.00 | 77 | 1015.9 |
| 20260906104047 | 70 | 130 | 2.6 | 2.6 | 0.00 | 0.00 | 0.00 | 76 | 1015.8 |
| 20260906103546 | 71 | 129 | 1.7 | 2.6 | 0.00 | 0.00 | 0.00 | 75 | 1015.8 |
| 20260906103056 | 71 | 128 | 1.7 | 3.5 | 0.00 | 0.00 | 0.00 | 75 | 1016.0 |
| 20260906102546 | 71 | 129 | 1.7 | 4.3 | 0.00 | 0.00 | 0.00 | 75 | 1015.8 |
| 20260906102052 | 71 | 122 | 2.6 | 4.3 | 0.00 | 0.00 | 0.00 | 75 | 1016.0 |
| 20260906101604 | 71 | 123 | 3.5 | 4.3 | 0.00 | 0.00 | 0.00 | 75 | 1016.0 |
| 20260906101050 | 72 | 108 | 2.6 | 4.3 | 0.00 | 0.00 | 0.00 | 76 | 1015.9 |
| 20260906100546 | 72 | 113 | 2.6 | 2.6 | 0.00 | 0.00 | 0.00 | 75 | 1016.0 |
| 20260906100106 | 72 | 128 | 2.6 | 2.6 | 0.00 | 0.00 | 0.00 | 74 | 1016.0 |
| 20260906095547 | 72 | 120 | 1.7 | 2.6 | 0.00 | 0.00 | 0.00 | 73 | 1016.0 |
| 20260906095045 | 73 | 0 | 0.0 | 0.0 | 0.00 | 0.00 | 0.00 | 72 | 1016.0 |
| 20260906094601 | 73 | 0 | 0.0 | 1.7 | 0.00 | 0.00 | 0.00 | 72 | 1015.9 |
| 20260906094047 | 74 | 0 | 0.0 | 2.6 | 0.00 | 0.00 | 0.00 | 71 | 1016.0 |
| 20260906093547 | 74 | 119 | 1.7 | 3.5 | 0.00 | 0.00 | 0.00 | 70 | 1016.0 |
| 20260906093057 | 74 | 153 | 1.7 | 3.5 | 0.00 | 0.00 | 0.00 | 70 | 1015.9 |
| 20260906092547 | 75 | 148 | 2.6 | 3.5 | 0.00 | 0.00 | 0.00 | 70 | 1015.9 |
| 20260906092047 | 75 | 182 | 1.7 | 3.5 | 0.00 | 0.00 | 0.00 | 69 | 1015.8 |
| 20260906091611 | 75 | 150 | 1.7 | 3.5 | 0.00 | 0.00 | 0.00 | 69 | 1015.8 |
| 20260906091046 | 75 | 188 | 1.7 | 3.5 | 0.00 | 0.00 | 0.00 | 68 | 1016.0 |
| 20260906090548 | 76 | 148 | 2.6 | 3.5 | 0.00 | 0.00 | 0.00 | 68 | 1016.0 |
| 20260906090112 | 76 | 168 | 1.7 | 4.3 | 0.00 | 0.00 | 0.00 | 68 | 1016.0 |
| 20260906085551 | 76 | 179 | 2.6 | 4.3 | 0.00 | 0.00 | 0.00 | 67 | 1016.0 |
| 20260906085047 | 76 | 166 | 3.5 | 5.2 | 0.00 | 0.00 | 0.00 | 67 | 1016.0 |
| 20260906084601 | 77 | 151 | 3.5 | 5.2 | 0.00 | 0.00 | 0.00 | 66 | 1015.8 |
| 20260906084046 | 77 | 218 | 2.6 | 5.2 | 0.00 | 0.00 | 0.00 | 66 | 1015.8 |
| 20260906083547 | 77 | 199 | 2.6 | 5.2 | 0.00 | 0.00 | 0.00 | 65 | 1015.8 |
| 20260906083103 | 77 | 197 | 3.5 | 5.2 | 0.00 | 0.00 | 0.00 | 65 | 1015.9 |
| 20260906082546 | 77 | 205 | 3.5 | 5.2 | 0.00 | 0.00 | 0.00 | 65 | 1016.0 |
| 20260906082048 | 77 | 204 | 2.6 | 5.2 | 0.00 | 0.00 | 0.00 | 64 | 1016.0 |
| 20260906081602 | 77 | 205 | 2.6 | 4.3 | 0.00 | 0.00 | 0.00 | 64 | 1016.1 |
| 20260906081048 | 78 | 174 | 2.6 | 5.2 | 0.00 | 0.00 | 0.00 | 63 | 1016.1 |
| 20260906080549 | 78 | 176 | 2.6 | 6.1 | 0.00 | 0.00 | 0.00 | 63 | 1016.2 |
| 20260906080111 | 78 | 206 | 2.6 | 7.8 | 0.00 | 0.00 | 0.00 | 63 | 1016.2 |
| 20260906075547 | 78 | 214 | 4.3 | 7.8 | 0.00 | 0.00 | 0.00 | 62 | 1016.1 |
| 20260906075047 | 78 | 220 | 5.2 | 7.8 | 0.00 | 0.00 | 0.00 | 62 | 1016.2 |
| 20260906074603 | 78 | 205 | 4.3 | 7.0 | 0.00 | 0.00 | 0.00 | 62 | 1016.0 |
| 20260906074046 | 78 | 236 | 4.3 | 7.0 | 0.00 | 0.00 | 0.00 | 62 | 1016.0 |
| 20260906073547 | 78 | 220 | 4.3 | 7.0 | 0.00 | 0.00 | 0.00 | 61 | 1016.0 |
| 20260906073103 | 78 | 194 | 5.2 | 7.0 | 0.00 | 0.00 | 0.00 | 60 | 1016.0 |
| 20260906072549 | 78 | 202 | 4.3 | 7.0 | 0.00 | 0.00 | 0.00 | 60 | 1016.1 |
| 20260906072047 | 78 | 191 | 4.3 | 7.0 | 0.00 | 0.00 | 0.00 | 60 | 1016.0 |
| 20260906071606 | 78 | 166 | 5.2 | 7.8 | 0.00 | 0.00 | 0.00 | 60 | 1016.0 |
| 20260906071048 | 78 | 166 | 5.2 | 8.7 | 0.00 | 0.00 | 0.00 | 60 | 1015.9 |
| 20260906070550 | 79 | 148 | 6.1 | 8.7 | 0.00 | 0.00 | 0.00 | 60 | 1015.8 |
| 20260906065548 | 79 | 164 | 6.1 | 8.7 | 0.00 | 0.00 | 0.00 | 60 | 1015.8 |
| 20260906065047 | 79 | 157 | 6.1 | 8.7 | 0.00 | 0.00 | 0.00 | 59 | 1016.0 |
| 20260906064559 | 79 | 141 | 6.1 | 8.7 | 0.00 | 0.00 | 0.00 | 59 | 1016.0 |
| 20260906064049 | 80 | 148 | 6.1 | 9.6 | 0.00 | 0.00 | 0.00 | 58 | 1016.1 |
| 20260906063552 | 80 | 155 | 6.1 | 9.6 | 0.00 | 0.00 | 0.00 | 58 | 1016.1 |
| 20260906063102 | 80 | 156 | 6.1 | 9.6 | 0.00 | 0.00 | 0.00 | 58 | 1016.0 |
| 20260906062551 | 80 | 164 | 7.0 | 10.4 | 0.00 | 0.00 | 0.00 | 58 | 1016.1 |
| 20260906062049 | 80 | 142 | 7.8 | 10.4 | 0.00 | 0.00 | 0.00 | 58 | 1016.1 |
| 20260906061608 | 80 | 152 | 7.8 | 10.4 | 0.00 | 0.00 | 0.00 | 58 | 1016.0 |
| 20260906061047 | 80 | 139 | 7.0 | 9.6 | 0.00 | 0.00 | 0.00 | 58 | 1016.1 |
| 20260906060547 | 80 | 153 | 7.0 | 9.6 | 0.00 | 0.00 | 0.00 | 58 | 1016.1 |
| 20260906060150 | 80 | 175 | 6.1 | 8.7 | 0.00 | 0.00 | 0.00 | 58 | 1016.1 |
| 20260906055550 | 80 | 143 | 6.1 | 8.7 | 0.00 | 0.00 | 0.00 | 59 | 1016.0 |
| 20260906055049 | 80 | 146 | 7.0 | 10.4 | 0.00 | 0.00 | 0.00 | 60 | 1015.8 |
| 20260906054604 | 79 | 129 | 7.0 | 11.3 | 0.00 | 0.00 | 0.00 | 60 | 1015.9 |
| 20260906054049 | 79 | 130 | 7.8 | 11.3 | 0.00 | 0.00 | 0.00 | 61 | 1015.8 |
| 20260906053545 | 79 | 141 | 7.8 | 11.3 | 0.00 | 0.00 | 0.00 | 61 | 1015.7 |
| 20260906053100 | 79 | 129 | 7.8 | 11.3 | 0.00 | 0.00 | 0.00 | 62 | 1015.7 |
| 20260906052549 | 79 | 133 | 7.0 | 11.3 | 0.00 | 0.00 | 0.00 | 62 | 1015.6 |
| 20260906052047 | 79 | 123 | 7.0 | 11.3 | 0.00 | 0.00 | 0.00 | 62 | 1015.6 |
| 20260906051605 | 79 | 124 | 6.1 | 9.6 | 0.00 | 0.00 | 0.00 | 62 | 1015.6 |
| 20260906051049 | 79 | 132 | 7.0 | 10.4 | 0.00 | 0.00 | 0.00 | 62 | 1015.6 |
| 20260906050548 | 79 | 117 | 7.0 | 10.4 | 0.00 | 0.00 | 0.00 | 62 | 1015.5 |
| 20260906050116 | 79 | 124 | 7.0 | 10.4 | 0.00 | 0.00 | 0.00 | 61 | 1015.4 |
| 20260906045548 | 79 | 130 | 7.0 | 10.4 | 0.00 | 0.00 | 0.00 | 61 | 1015.4 |
| 20260906045049 | 79 | 131 | 7.0 | 10.4 | 0.00 | 0.00 | 0.00 | 61 | 1015.3 |
| 20260906044559 | 79 | 111 | 7.8 | 10.4 | 0.00 | 0.00 | 0.00 | 61 | 1015.4 |
| 20260906044047 | 79 | 122 | 7.8 | 9.6 | 0.00 | 0.00 | 0.00 | 61 | 1015.5 |
| 20260906043545 | 78 | 115 | 6.1 | 8.7 | 0.00 | 0.00 | 0.00 | 62 | 1015.6 |
| 20260906043107 | 78 | 121 | 6.1 | 8.7 | 0.00 | 0.00 | 0.00 | 62 | 1015.3 |
| 20260906042546 | 78 | 132 | 6.1 | 8.7 | 0.00 | 0.00 | 0.00 | 63 | 1015.3 |
| 20260906042045 | 78 | 128 | 6.1 | 8.7 | 0.00 | 0.00 | 0.00 | 62 | 1015.3 |
| 20260906041602 | 78 | 110 | 6.1 | 7.8 | 0.00 | 0.00 | 0.00 | 62 | 1015.3 |
| 20260906041046 | 78 | 123 | 6.1 | 7.8 | 0.00 | 0.00 | 0.00 | 62 | 1015.3 |
| 20260906040547 | 78 | 116 | 6.1 | 8.7 | 0.00 | 0.00 | 0.00 | 61 | 1015.4 |
| 20260906040111 | 78 | 127 | 6.1 | 9.6 | 0.00 | 0.00 | 0.00 | 61 | 1015.4 |
| 20260906035547 | 79 | 127 | 7.0 | 9.6 | 0.00 | 0.00 | 0.00 | 61 | 1015.3 |
| 20260906035048 | 78 | 117 | 6.1 | 9.6 | 0.00 | 0.00 | 0.00 | 61 | 1015.3 |
| 20260906034603 | 78 | 120 | 7.0 | 9.6 | 0.00 | 0.00 | 0.00 | 61 | 1015.3 |
| 20260906034046 | 78 | 110 | 6.1 | 8.7 | 0.00 | 0.00 | 0.00 | 62 | 1015.3 |
| 20260906033550 | 78 | 126 | 7.0 | 8.7 | 0.00 | 0.00 | 0.00 | 63 | 1015.3 |
| 20260906033107 | 78 | 132 | 5.2 | 8.7 | 0.00 | 0.00 | 0.00 | 63 | 1015.3 |
| 20260906032546 | 78 | 139 | 6.1 | 8.7 | 0.00 | 0.00 | 0.00 | 63 | 1015.2 |
| 20260906032048 | 78 | 135 | 6.1 | 8.7 | 0.00 | 0.00 | 0.00 | 63 | 1015.2 |
| 20260906031630 | 78 | 127 | 5.2 | 9.6 | 0.00 | 0.00 | 0.00 | 63 | 1015.3 |
| 20260906031048 | 79 | 131 | 6.1 | 9.6 | 0.00 | 0.00 | 0.00 | 62 | 1015.4 |
| 20260906030549 | 79 | 124 | 6.1 | 9.6 | 0.00 | 0.00 | 0.00 | 62 | 1015.4 |
| 20260906030109 | 79 | 125 | 6.1 | 9.6 | 0.00 | 0.00 | 0.00 | 62 | 1015.3 |
| 20260906025548 | 79 | 136 | 6.1 | 9.6 | 0.00 | 0.00 | 0.00 | 61 | 1015.3 |
| 20260906025045 | 80 | 136 | 6.1 | 9.6 | 0.00 | 0.00 | 0.00 | 61 | 1015.1 |
| 20260906024605 | 80 | 139 | 7.0 | 9.6 | 0.00 | 0.00 | 0.00 | 61 | 1014.8 |
| 20260906024047 | 80 | 129 | 7.8 | 10.4 | 0.00 | 0.00 | 0.00 | 61 | 1014.7 |
| 20260906023546 | 80 | 149 | 7.8 | 13.9 | 0.00 | 0.00 | 0.00 | 61 | 1014.7 |
| 20260906023115 | 80 | 130 | 8.7 | 13.9 | 0.00 | 0.00 | 0.00 | 61 | 1014.7 |
| 20260906022550 | 80 | 132 | 9.6 | 13.9 | 0.00 | 0.00 | 0.00 | 61 | 1014.6 |
| 20260906022047 | 80 | 127 | 9.6 | 13.9 | 0.00 | 0.00 | 0.00 | 61 | 1014.5 |
| 20260906021607 | 80 | 120 | 10.4 | 14.8 | 0.00 | 0.00 | 0.00 | 61 | 1014.6 |
| 20260906021047 | 80 | 140 | 9.6 | 14.8 | 0.00 | 0.00 | 0.00 | 61 | 1014.4 |
| 20260906020547 | 80 | 119 | 10.4 | 16.5 | 0.00 | 0.00 | 0.00 | 61 | 1014.4 |
| 20260906015547 | 80 | 84 | 12.2 | 16.5 | 0.00 | 0.00 | 0.00 | 62 | 1014.4 |
| 20260906015049 | 80 | 111 | 12.2 | 16.5 | 0.00 | 0.00 | 0.00 | 62 | 1014.2 |
| 20260906014606 | 80 | 118 | 11.3 | 16.5 | 0.00 | 0.00 | 0.00 | 62 | 1014.1 |
| 20260906014049 | 81 | 106 | 13.0 | 19.1 | 0.00 | 0.00 | 0.00 | 62 | 1014.2 |
| 20260906013546 | 81 | 111 | 13.0 | 19.1 | 0.00 | 0.00 | 0.00 | 60 | 1014.0 |
| 20260906013101 | 81 | 87 | 10.4 | 19.1 | 0.00 | 0.00 | 0.00 | 57 | 1013.9 |
| 20260906012549 | 82 | 116 | 13.0 | 19.1 | 0.00 | 0.00 | 0.00 | 56 | 1013.9 |
| 20260906012048 | 82 | 119 | 13.0 | 19.1 | 0.00 | 0.00 | 0.00 | 56 | 1013.8 |
| 20260906011610 | 82 | 115 | 12.2 | 19.1 | 0.00 | 0.00 | 0.00 | 57 | 1013.9 |
| 20260906011047 | 82 | 120 | 12.2 | 16.5 | 0.00 | 0.00 | 0.00 | 58 | 1014.0 |
| 20260906010548 | 82 | 126 | 12.2 | 16.5 | 0.00 | 0.00 | 0.00 | 58 | 1014.0 |
| 20260906010104 | 82 | 111 | 12.2 | 19.1 | 0.00 | 0.00 | 0.00 | 59 | 1014.0 |
| 20260906005546 | 82 | 135 | 13.0 | 20.0 | 0.00 | 0.00 | 0.00 | 59 | 1014.1 |
| 20260906005045 | 82 | 124 | 13.9 | 20.0 | 0.00 | 0.00 | 0.00 | 59 | 1014.1 |
| 20260906004600 | 82 | 114 | 12.2 | 20.0 | 0.00 | 0.00 | 0.00 | 58 | 1014.2 |
| 20260906004046 | 82 | 126 | 13.9 | 22.6 | 0.00 | 0.00 | 0.00 | 58 | 1014.2 |
| 20260906003546 | 83 | 113 | 14.8 | 22.6 | 0.00 | 0.00 | 0.00 | 58 | 1014.2 |
| 20260906003105 | 83 | 122 | 15.6 | 23.5 | 0.00 | 0.00 | 0.00 | 56 | 1014.2 |
| 20260906002552 | 84 | 124 | 16.5 | 23.5 | 0.00 | 0.00 | 0.00 | 56 | 1014.4 |
| 20260906002047 | 85 | 127 | 16.5 | 21.7 | 0.00 | 0.00 | 0.00 | 55 | 1014.3 |
| 20260906001611 | 85 | 98 | 14.8 | 19.1 | 0.00 | 0.00 | 0.00 | 54 | 1014.3 |
| 20260906001050 | 86 | 127 | 13.9 | 22.6 | 0.00 | 0.00 | 0.00 | 52 | 1014.2 |
| 20260906000547 | 86 | 96 | 14.8 | 24.3 | 0.00 | 0.00 | 0.00 | 51 | 1014.3 |
| 20260906000109 | 87 | 117 | 16.5 | 24.3 | 0.00 | 0.00 | 0.00 | 50 | 1014.3 |
| 20260905235548 | 87 | 116 | 15.6 | 20.9 | 0.00 | 0.00 | 0.00 | 51 | 1014.3 |
| 20260905235047 | 87 | 120 | 13.9 | 20.9 | 0.00 | 0.00 | 0.00 | 52 | 1014.1 |
| 20260905234607 | 87 | 96 | 13.9 | 20.9 | 0.00 | 0.00 | 0.00 | 51 | 1014.1 |
| 20260905234052 | 87 | 105 | 11.3 | 20.9 | 0.00 | 0.00 | 0.00 | 51 | 1014.2 |
| 20260905233547 | 88 | 84 | 10.4 | 20.9 | 0.00 | 0.00 | 0.00 | 51 | 1014.3 |
| 20260905233108 | 89 | 99 | 12.2 | 20.0 | 0.00 | 0.00 | 0.00 | 49 | 1014.2 |
| 20260905232548 | 91 | 113 | 12.2 | 19.1 | 0.00 | 0.00 | 0.00 | 45 | 1013.9 |
| 20260905232049 | 95 | 75 | 13.9 | 17.4 | 0.00 | 0.00 | 0.00 | 40 | 1014.0 |
| 20260905231619 | 96 | 148 | 9.6 | 13.9 | 0.00 | 0.00 | 0.00 | 35 | 1013.7 |
| 20260905231051 | 97 | 125 | 10.4 | 15.6 | 0.00 | 0.00 | 0.00 | 34 | 1013.6 |
| 20260905230549 | 97 | 101 | 10.4 | 15.6 | 0.00 | 0.00 | 0.00 | 34 | 1013.5 |
| 20260905230113 | 97 | 122 | 8.7 | 13.9 | 0.00 | 0.00 | 0.00 | 34 | 1013.4 |
| 20260905225546 | 98 | 115 | 6.1 | 19.1 | 0.00 | 0.00 | 0.00 | 34 | 1013.3 |
| 20260905225047 | 98 | 120 | 10.4 | 19.1 | 0.00 | 0.00 | 0.00 | 33 | 1013.2 |
| 20260905224604 | 97 | 146 | 11.3 | 19.1 | 0.00 | 0.00 | 0.00 | 34 | 1013.2 |
| 20260905224048 | 98 | 120 | 12.2 | 17.4 | 0.00 | 0.00 | 0.00 | 34 | 1013.2 |
| 20260905223546 | 97 | 128 | 10.4 | 15.6 | 0.00 | 0.00 | 0.00 | 34 | 1013.2 |
| 20260905223105 | 97 | 144 | 10.4 | 15.6 | 0.00 | 0.00 | 0.00 | 34 | 1013.2 |
| 20260905222550 | 98 | 129 | 8.7 | 15.6 | 0.00 | 0.00 | 0.00 | 33 | 1013.2 |
| 20260905222046 | 98 | 139 | 11.3 | 15.6 | 0.00 | 0.00 | 0.00 | 33 | 1013.1 |
| 20260905221633 | 98 | 141 | 10.4 | 17.4 | 0.00 | 0.00 | 0.00 | 34 | 1013.1 |
| 20260905221047 | 98 | 146 | 9.6 | 17.4 | 0.00 | 0.00 | 0.00 | 34 | 1013.1 |
| 20260905220549 | 98 | 151 | 10.4 | 15.6 | 0.00 | 0.00 | 0.00 | 33 | 1013.0 |
| 20260905220100 | 98 | 119 | 8.7 | 13.0 | 0.00 | 0.00 | 0.00 | 33 | 1013.2 |
| 20260905215547 | 98 | 143 | 7.8 | 13.9 | 0.00 | 0.00 | 0.00 | 34 | 1013.1 |
| 20260905215053 | 97 | 148 | 8.7 | 15.6 | 0.00 | 0.00 | 0.00 | 34 | 1013.2 |
| 20260905214609 | 97 | 161 | 10.4 | 16.5 | 0.00 | 0.00 | 0.00 | 35 | 1013.4 |
| 20260905214050 | 97 | 197 | 10.4 | 16.5 | 0.00 | 0.00 | 0.00 | 35 | 1013.4 |
| 20260905213549 | 97 | 195 | 12.2 | 16.5 | 0.00 | 0.00 | 0.00 | 35 | 1013.5 |
| 20260905213105 | 98 | 203 | 10.4 | 16.5 | 0.00 | 0.00 | 0.00 | 34 | 1013.6 |
| 20260905212552 | 98 | 152 | 10.4 | 16.5 | 0.00 | 0.00 | 0.00 | 34 | 1013.4 |
| 20260905212047 | 99 | 159 | 9.6 | 19.1 | 0.00 | 0.00 | 0.00 | 33 | 1013.4 |
| 20260905211605 | 99 | 206 | 10.4 | 19.1 | 0.00 | 0.00 | 0.00 | 33 | 1013.4 |
| 20260905211049 | 99 | 163 | 12.2 | 19.1 | 0.00 | 0.00 | 0.00 | 33 | 1013.4 |
| 20260905210548 | 99 | 157 | 11.3 | 19.1 | 0.00 | 0.00 | 0.00 | 32 | 1013.5 |
| 20260905210114 | 99 | 158 | 7.0 | 19.1 | 0.00 | 0.00 | 0.00 | 33 | 1013.5 |
| 20260905205548 | 98 | 200 | 11.3 | 17.4 | 0.00 | 0.00 | 0.00 | 34 | 1013.6 |
| 20260905205049 | 98 | 124 | 10.4 | 17.4 | 0.00 | 0.00 | 0.00 | 34 | 1013.7 |
| 20260905204601 | 98 | 135 | 7.0 | 17.4 | 0.00 | 0.00 | 0.00 | 35 | 1013.8 |
| 20260905204048 | 97 | 163 | 9.6 | 17.4 | 0.00 | 0.00 | 0.00 | 34 | 1014.0 |
| 20260905203548 | 98 | 124 | 6.1 | 14.8 | 0.00 | 0.00 | 0.00 | 34 | 1014.1 |
| 20260905203059 | 97 | 166 | 9.6 | 14.8 | 0.00 | 0.00 | 0.00 | 35 | 1014.3 |
| 20260905202549 | 97 | 176 | 11.3 | 19.1 | 0.00 | 0.00 | 0.00 | 35 | 1014.3 |
| 20260905202047 | 98 | 152 | 13.0 | 19.1 | 0.00 | 0.00 | 0.00 | 35 | 1014.3 |
| 20260905201600 | 98 | 141 | 12.2 | 17.4 | 0.00 | 0.00 | 0.00 | 35 | 1014.4 |